Regional Weather Roundup
Issued by NWS

Home | Current Version | Previous Version | Graphics & Text | Print | Product List | Glossary On
Versions: 1 2 3 4 5 6 7 8 9 10 11 12 13 14 15 16 17 18 19 20 21 22 23 24 25 26 27 28 29 30 31 32 33 34 35 36 37 38 39 40 41 42 43 44 45 46 47 48 49 50
000
ASUS43 KDTX 261001
RWRMI
MICHIGAN HOURLY REGIONAL WEATHER ROUNDUP
NATIONAL WEATHER SERVICE DETROIT/PONTIAC MI
500 AM EST WED NOV 26 2014

NOTE: "FAIR" INDICATES FEW OR NO CLOUDS BELOW 12,000 FEET WITH NO
SIGNIFICANT WEATHER AND/OR OBSTRUCTION TO VISIBILITY.

MIZ047>049-052>055-059>063-066>070-074>076-081>083-261100-
SOUTHEAST LOWER MICHIGAN

CITY           SKY/WX    TMP DP  RH WIND       PRES   REMARKS
ADRIAN         CLOUDY    27  20  75 SE5       30.18F WCI  22
ALMA           CLOUDY    28  22  75 CALM      30.18F
ANN ARBOR      CLOUDY    28  19  69 CALM      30.18S
BAD AXE        CLOUDY    29  23  76 CALM      30.18F
DETROIT CITY   CLOUDY    33  21  61 N5        30.19F WCI  29
DETROIT        CLOUDY    30  21  69 CALM      30.19F
FLINT          CLOUDY    31  20  63 CALM      30.19S
GROSSE ILE     CLOUDY    30  23  74 CALM      30.18S
HILLSDALE      CLOUDY    26  21  80 CALM      30.15S
HOWELL         CLOUDY    28  21  75 CALM      30.17S

CITY           SKY/WX    TMP DP  RH WIND       PRES   REMARKS
JACKSON        CLOUDY    26  19  74 NE6       30.17S WCI  19
LAMBERTVILLE   CLOUDY    30  21  69 CALM      30.19S
LANSING        CLOUDY    28  19  69 N3        30.18F
LAPEER         CLOUDY    29  22  73 N3        30.18S
MASON          CLOUDY    28  21  75 NE3       30.18R
MONROE         CLOUDY    28  21  74 CALM      30.17F
MT. CLEMENS    CLOUDY    30  23  73 NW6       30.17S WCI  24
PONTIAC        CLOUDY    28  19  69 NW3       30.16S
PORT HOPE        N/A     30  20  66 SW5       30.17F WCI  25
PORT HURON     CLOUDY    30  23  74 CALM      30.20R
TRI CITIES     CLOUDY    31  22  69 N6        30.19F WCI  25
TROY           CLOUDY    32  22  65 NE6       30.20R WCI  26
SAGINAW HB     CLOUDY    30  25  80 N3        30.18S
$$
MIZ043>046-050>051-056>058-064>065-071>073-077>080-261100-
SOUTHWEST LOWER MICHIGAN

CITY           SKY/WX    TMP DP  RH WIND       PRES   REMARKS
BATTLE CREEK   CLOUDY    28  18  66 CALM      30.17S
BENTON HARBOR  CLOUDY    24  19  81 SE3       30.19F
BIG RAPIDS     CLOUDY    27  26  98 CALM      30.15F
COLDWATER      CLOUDY    28  21  77 E5        30.16S WCI  22
FREMONT        CLOUDY    27  25  90 CALM      30.16F
HOLLAND        CLOUDY    29  22  75 S3        30.17F
GRAND RAPIDS   CLOUDY    28  22  78 S5        30.17F WCI  23
IONIA          CLOUDY    29  24  80 CALM      30.16F
KALAMAZOO      CLOUDY    27  18  69 CALM      30.18S
LUDINGTON      CLOUDY    27  25  92 CALM      30.16F
MARSHALL       CLOUDY    26  19  74 CALM      30.16S
MOUNT PLEASANT CLOUDY    29  23  77 CALM      30.17F
MUSKEGON       CLOUDY    30  23  75 CALM      30.16F
SOUTH HAVEN    CLOUDY    27  21  76 S6        30.18S WCI  21
$$
MIZ016>042-261100-
NORTHERN LOWER MICHIGAN

CITY           SKY/WX    TMP DP  RH WIND       PRES   REMARKS
ALPENA         CLOUDY    27  19  72 SW6       30.19F WCI  20
BEAVER ISLAND  CLOUDY    28  22  81 CALM      30.16S
BELLAIRE       CLOUDY    26  21  81 CALM      30.19F
CADILLAC       CLOUDY    24  20  87 E3        30.13S
CHARLEVOIX     CLOUDY    26  23  88 S8        30.19F WCI  18
FRANKFORT      CLOUDY    26  24  91 CALM      30.16F
GAYLORD        CLOUDY    22  19  89 S3        30.14F
GRAYLING       CLOUDY    23  21  93 CALM      30.16F
HARBOR SPRINGS CLOUDY    26  21  80 E7        30.17F WCI  19
HOUGHTON LAKE  CLOUDY    25  18  74 N3        30.16F
MANISTEE       CLOUDY    27  21  80 E3        30.17F
OSCODA         CLOUDY    28  22  78 CALM      30.19F
PELLSTON       CLOUDY    25  22  88 CALM      30.18S
ROGERS CITY    CLOUDY    27  25  94 SW6       30.19F WCI  20
TRAVERSE CITY  CLOUDY    27  20  75 SE5       30.16F WCI  22
$$
MIZ007>008-015-261100-
EASTERN UPPER MICHIGAN

CITY           SKY/WX    TMP DP  RH WIND       PRES   REMARKS
KINROSS        MOCLDY    14  12  92 CALM      30.17F
MACKINAC ISLAN CLOUDY    25  22  85 E5        30.17F WCI  20
NEWBERRY       MOCLDY     6   5  95 CALM      30.15S
S. S. MARIE    MOCLDY    17  13  84 S5        30.15S WCI  10
MUNISING         N/A      5   0  79 S7        30.16R WCI  -7
$$
MIZ004>006-011>014-085-261100-
CENTRAL UPPER MICHIGAN

CITY           SKY/WX    TMP DP  RH WIND       PRES   REMARKS
MANISTIQUE     CLOUDY    13  11  93 CALM      30.15F
ESCANABA       CLOUDY     9   5  85 CALM      30.15F
MENOMINEE      CLEAR     10   9  92 CALM      30.15F
SAWYER-GWINN   PTCLDY    -6 -10  81 CALM      30.10F
$$
MIZ001>003-009>011-084-261100-
WESTERN UPPER MICHIGAN

CITY           SKY/WX    TMP DP  RH WIND       PRES   REMARKS
IRON MOUNTAIN  CLOUDY     0  -5  79 NW3       30.10F
HOUGHTON       PTCLDY     9   4  80 CALM      30.09S
COPPER HARBOR    N/A     22  14  71 SW6       30.11S WCI  14
IRONWOOD       CLOUDY    12   9  85 CALM      30.07S
$$

ABBREVIATIONS USED IN REMARKS
   TC - TEMPERATURE IN CELSIUS
  WCI - WIND CHILL INDEX
   HX - HEAT INDEX
  VSB - VISIBILITY



USA.gov is the U.S. government's official web portal to all federal, state and local government web resources and services.